Regional Weather Roundup
Issued by NWS Albany, NY

Home | Current Version | Previous Version | Text Only | Print | Product List | Glossary On
Versions: 1 2 3 4 5 6 7 8 9 10 11 12 13 14 15 16 17 18 19 20 21 22 23 24 25 26 27 28
000
ASUS41 KALY 130910
RWRALY

NEW YORK STATE HOURLY WEATHER ROUNDUP
NATIONAL WEATHER SERVICE ALBANY NY
400 AM EST WED DEC 13 2017

NOTE: "FAIR" INDICATES FEW OR NO CLOUDS BELOW 12,000 FEET WITH NO
SIGNIFICANT WEATHER AND/OR NO OBSTRUCTIONS TO VISIBILITY.

NYZ032-033-038>043-046>054-057>066-NYZ062>081-082-084-131000-
EAST


CITY           SKY/WX    TMP DP  RH WIND       PRES   REMARKS
ALBANY         CLOUDY    18   5  57 W15       29.44F WCI   4
GLENS FALLS    CLOUDY    18  10  71 SW7       29.39S WCI   9
POUGHKEEPSIE   PTCLDY    19   4  51 NW12G21   29.47F WCI   7
NEWBURGH       PTCLDY    18   7  62 W12G23    29.47F WCI   5
MONTGOMERY     MOCLDY    19   7  59 W9        29.47F WCI   8
WHITE PLAINS   MOCLDY    20   3  48 W18G32    29.43F WCI   5
ISLIP          PTCLDY    23   5  46 W21G33    29.44S WCI   8
NEW YORK CITY  PTCLDY    24   4  42 W22G35    29.50F WCI   9
CENTRAL PARK   PTCLDY    22   3  44 NW13G28   29.52F WCI  10
$$

NYZ005>009-017-018-044>046-055-056-131000-
CENTRAL


CITY           SKY/WX    TMP DP  RH WIND       PRES   REMARKS
FULTON         FLURRIES  18  11  74 NW9       29.48S WCI   7
SYRACUSE       LGT SNOW  14  13  95 W16G28    29.49S VSB 3/4 WCI  -2
ROME           LGT SNOW  14  11  87 W14       29.46F FOG     WCI  -1
ELMIRA         CLOUDY    16   5  62 W14       29.54S WCI   2
BINGHAMTON     CLOUDY    10   3  73 W12       29.43S WCI  -5
$$

NYZ026>034-041>043-087-131000-
NORTH


CITY           SKY/WX    TMP DP  RH WIND       PRES   REMARKS
WATERTOWN      LGT SNOW  13  10  88 NW13      29.49R VSB 3/4 WCI  -2
FORT DRUM      NOT AVBL
OGDENSBURG     FLURRIES  12   8  85 W10G20    29.45F WCI  -2
MASSENA        CLOUDY    12   9  87 SW14      29.43S WCI  -3
SARANAC LAKE   CLOUDY    13  10  88 W9        29.27S WCI   1
PLATTSBURGH    CLOUDY    21  12  68 VRB5      29.36R WCI  15
$$

NYZ001>004-010>016-019>021-085-131000-
WEST


CITY           SKY/WX    TMP DP  RH WIND       PRES   REMARKS
NIAGARA FALLS  MIX PCPN  17   7  64 NW20G31   29.65R WCI   1
BUFFALO        FLURRIES  14   8  77 W10       29.64R WCI   1
DUNKIRK        CLOUDY    17   9  70 NW18G26   29.71R WCI   1
JAMESTOWN      LGT SNOW  13   8  81 NW22G28   29.59S WCI  -6
WELLSVILLE     LGT SNOW  11   4  73 NW15      29.51R WCI  -5
ROCHESTER      LGT SNOW  15  12  88 W17G23    29.57R VSB 1   WCI  -1
PENN YAN       MIX PCPN  14   4  64 W18G32    29.53R WCI  -3
$$

             KEY
       WCI = WIND CHILL INDEX
       VSB = VISIBILITY
       HX  = HEAT INDEX
$$




USA.gov is the U.S. government's official web portal to all federal, state and local government web resources and services.